Current weather by "City, St" or "zip code"  
 

Current Conditions: Rapid City, Rapid City Regional Airport, SD

Fair


25.0 F

Last Updated on Feb 25 2024, 5:52 am MST
Humidity: 75%
Wind Speed: N 0.0 mph
Barometer 29.71 in
Dewpoint: 18.0 F
Visibility: 10.00 mi
Precip: --
Heat Index: NA
Wind Chill: NA
Current conditions at:

Rapid City, Rapid City Regional Airport, SD (KRAP)

Lat: 44.04556 Lon: 103.05389

Local Radar Image active severe weather and emergency alerts image image weather storm and storm spotter reports image weather observation monitoring service image
Local
Radar
Active
Alerts
Storm Reports Obs
Monitoring

Sign-up For Email & Text Message Weather Alert Notification Services



Advertise Here

Observation History for Rapid City, Rapid City Regional Airport, SD


Time Wind
(mph)
Vis
(mi)
Weather Precip (in) Temperature (F) Relative
Humidity
Wind
Chill
(F)
Heat
Index
(F)
Pressure
Air Dwpt altimeter
(in)
sea level
(mb)
Rmks
5:52 am MST N 0.0 10.00 Fair -- 25.0 18.0 75% NA NA 29.71 1008.1
2:52 am MST NW 5.8 10.00 Fair -- 29.0 19.0 66% 23 NA 29.73 1007.8
1:52 am MST NW 6.9 10.00 Fair -- 31.0 19.9 64% 24 NA 29.74 1007.8
12:52 am MST W 5.8 10.00 Fair -- 32.0 21.9 66% 26 NA 29.75 1008.0
11:52 pm MST N 5.8 10.00 Fair -- 31.0 21.0 67% 25 NA 29.75 1008.1
10:52 pm MST W 5.8 10.00 A Few Clouds -- 35.0 21.0 57% 30 NA 29.76 1008.5
8:52 pm MST NW 4.6 10.00 A Few Clouds -- 37.0 21.9 54% 33 NA 29.75 1008.8
7:52 pm MST W 3.5 10.00 Mostly Cloudy -- 44.0 21.9 41% NA NA 29.74 1008.3
6:52 pm MST N 9.2 10.00 Overcast -- 47.0 23.0 39% 43 NA 29.74 1008.5
3:52 pm MST N 6.9 G 19.6 10.00 Overcast -- 59.0 16.0 18% 58 NA 29.71 1006.7
1:52 pm MST NW 16.1 G 24.2 10.00 Fair -- 60.0 18.0 19% 57 NA 29.74 1007.9
11:52 am MST NW 18.4 G 27.6 10.00 Fair -- 60.0 18.0 19% 57 NA 29.77 1008.9
10:52 am MST NW 17.3 G 26.5 10.00 Fair -- 57.0 17.1 21% 53 NA 29.80 1009.7
8:52 am MST SW 6.9 10.00 Fair -- 47.0 21.9 37% 44 NA 29.82 1011.6
7:52 am MST W 6.9 10.00 Fair -- 42.0 21.0 43% 38 NA 29.83 1012.0
6:52 am MST W 3.5 10.00 Fair -- 32.0 18.0 56% NA NA 29.83 1012.8

Regional Weather Observation


Ellsworth Air Force Base, SD (KRCA)

Fair
30.0 F

Spearfish / Clyde Ice, SD (KSPF)

Overcast
30.0 F

Custer, Custer County Airport, SD (KCUT)

Fair
31.0 F

Mondell Field, WY (KECS)

Fair
28.0 F

Hulett Municipal Airport, WY (KW43)

Mostly Cloudy
30.0 F

Pine Ridge, Pine Ridge Airport, SD (KIEN)

Fair
32.0 F

Advertise Here


Advertise Here